Ashtabula, OH

11:15 PM EST on November 19, 2017 (GMT -0500)
Ashtabula County

Weather History for KHZY - December, 2012

Change the Weather History Date:

Saturday, December 22, 2012

  Actual Average (KGKJ) Record (KGKJ)
Temperature  
Mean Temperature 29 °F -  
Max Temperature 30 °F 36 °F 64 °F (1967)
Min Temperature 28 °F 20 °F -8 °F (1958)
Degree Days  
Heating Degree Days 36    
Moisture  
Dew Point 22 °F    
Average Humidity 72    
Maximum Humidity 86    
Minimum Humidity 61    
Precipitation  
Precipitation 0.03 in - - ()
Sea Level Pressure  
Sea Level Pressure 29.89 in    
Wind  
Wind Speed 19 mph (WNW)    
Max Wind Speed 26 mph    
Max Gust Speed 44 mph    
Visibility 6 miles    
Events Snow    
Averages and records for this station are not official NWS values.
T = Trace of Precipitation, MM = Missing Value Source: NWS Daily Summary

Daily Weather History Graph

Daily Weather History Graph

Search for Another Location

Airport or City:

Trip Planner

Search our weather history database for the weather conditions in past years. The results will help you decide how hot, cold, wet, or windy it might be!

Date:

Astronomy

Dec. 22, 2012 Rise Set
Actual Time 7:47 AM EST 4:55 PM EST
Civil Twilight 7:15 AM EST 5:27 PM EST
Nautical Twilight 6:40 AM EST 6:02 PM EST
Astronomical Twilight 6:06 AM EST 6:36 PM EST
Moon 1:15 PM EST (12/22) 2:28 AM EST (12/22)
Length of Visible Light 10h 11m
Length of Day
9h 08m
Waxing Gibbous, 73% of the Moon is Illuminated
Dec 22
Waxing Gibbous
Dec 28
Full
Jan 4
Last Quarter
Jan 11
New
Jan 18
First Quarter

Hourly Weather History & Observations

Time (EST) Temp. Windchill Dew Point Humidity Pressure Visibility Wind Dir Wind Speed Gust Speed Precip Events Conditions
12:07 AM 30.2 °F 16.5 °F 26.6 °F 86% 29.65 in 1.0 mi NW 24.2 mph 34.5 mph 0.01 in Snow Light Snow
12:25 AM 30.2 °F 15.9 °F 24.8 °F 80% 29.66 in 1.2 mi WNW 26.5 mph 36.8 mph 0.02 in Snow Light Snow
12:49 AM 30.2 °F 16.8 °F 24.8 °F 80% 29.67 in 1.8 mi WNW 23.0 mph 36.8 mph 0.02 in Snow Light Snow
12:53 AM 30.0 °F 17.2 °F 25.0 °F 82% 29.69 in 1.8 mi WNW 20.7 mph 40.3 mph 0.02 in Snow Light Snow
1:03 AM 30.2 °F 17.8 °F 24.8 °F 80% 29.67 in 2.5 mi NW 19.6 mph 32.2 mph 0.00 in Snow Light Snow
1:16 AM 30.2 °F 17.1 °F 24.8 °F 80% 29.68 in 1.5 mi NW 21.9 mph 42.6 mph 0.00 in Snow Light Snow
1:30 AM 30.2 °F 17.4 °F 24.8 °F 80% 29.69 in 2.0 mi NW 20.7 mph 36.8 mph 0.00 in Snow Light Snow
1:40 AM 30.2 °F 17.1 °F 24.8 °F 80% 29.70 in 1.8 mi NW 21.9 mph 38.0 mph 0.00 in Snow Light Snow
1:53 AM 30.0 °F 16.3 °F 24.1 °F 79% 29.74 in 1.8 mi WNW 24.2 mph 38.0 mph 0.00 in Snow Light Snow
2:35 AM 30.2 °F 17.1 °F 24.8 °F 80% 29.76 in 2.0 mi NW 21.9 mph 33.4 mph 0.01 in Snow Light Snow
2:45 AM 30.2 °F 18.1 °F 24.8 °F 80% 29.76 in 1.8 mi NW 18.4 mph 33.4 mph 0.01 in Snow Light Snow
2:53 AM 30.0 °F 17.9 °F 24.1 °F 79% 29.79 in 2.0 mi NW 18.4 mph 33.4 mph 0.01 in Snow Light Snow
3:00 AM 30.2 °F 16.5 °F 24.8 °F 80% 29.77 in 1.5 mi NW 24.2 mph 43.7 mph 0.00 in Snow Light Snow
3:13 AM 28.4 °F 15.1 °F 24.8 °F 86% 29.78 in 1.0 mi NW 20.7 mph 40.3 mph 0.00 in Snow Light Snow
3:22 AM 30.2 °F 17.4 °F 23.0 °F 75% 29.78 in 1.8 mi WNW 20.7 mph 34.5 mph 0.00 in Snow Light Snow
3:46 AM 30.2 °F 17.4 °F 21.2 °F 69% 29.80 in 2.5 mi NW 20.7 mph 35.7 mph 0.00 in Snow Light Snow
3:53 AM 30.0 °F 19.1 °F 21.9 °F 72% 29.83 in 3.0 mi WNW 15.0 mph 33.4 mph 0.00 in Snow Light Snow
4:18 AM 30.2 °F 16.8 °F 21.2 °F 69% 29.82 in 2.0 mi NW 23.0 mph 38.0 mph 0.00 in Snow Light Snow
4:31 AM 30.2 °F 18.9 °F 21.2 °F 69% 29.82 in 4.0 mi NW 16.1 mph 36.8 mph 0.00 in Snow Light Snow
4:53 AM 30.0 °F 19.5 °F 21.0 °F 69% 29.86 in 7.0 mi NW 13.8 mph 33.4 mph 0.00 in   Overcast
5:22 AM 30.2 °F 18.9 °F 19.4 °F 64% 29.85 in 7.0 mi NW 16.1 mph 31.1 mph N/A   Overcast
5:53 AM 30.0 °F 17.9 °F 18.0 °F 61% 29.90 in 8.0 mi NW 18.4 mph 32.2 mph 0.00 in   Overcast
6:09 AM 30.2 °F 18.5 °F 19.4 °F 64% 29.88 in 9.0 mi NW 17.3 mph 26.5 mph 0.00 in Snow Light Snow
6:53 AM 30.0 °F 18.7 °F 19.9 °F 66% 29.92 in 9.0 mi NNW 16.1 mph 27.6 mph 0.00 in   Overcast
7:53 AM 30.0 °F 17.9 °F 19.0 °F 64% 29.95 in 10.0 mi NW 18.4 mph 26.5 mph 0.00 in   Overcast
8:04 AM 30.2 °F 17.4 °F 19.4 °F 64% 29.93 in 7.0 mi NW 20.7 mph 28.8 mph N/A   Overcast
8:53 AM 30.0 °F 18.7 °F 19.0 °F 64% 29.98 in 10.0 mi NW 16.1 mph 26.5 mph N/A   Overcast
9:53 AM 30.9 °F 22.8 °F 19.9 °F 64% 30.00 in 10.0 mi NW 9.2 mph 19.6 mph N/A   Overcast
10:53 AM 30.9 °F 20.7 °F 21.0 °F 67% 30.01 in 10.0 mi WNW 13.8 mph 21.9 mph 0.00 in   Overcast
11:02 AM 30.2 °F 19.8 °F 19.4 °F 64% 29.98 in 10.0 mi WNW 13.8 mph 24.2 mph N/A   Overcast
11:53 AM 30.9 °F 19.8 °F 19.9 °F 64% 30.01 in 10.0 mi WNW 16.1 mph 27.6 mph N/A   Overcast
12:06 PM 30.2 °F 18.9 °F 19.4 °F 64% 29.98 in 10.0 mi WNW 16.1 mph 23.0 mph N/A   Overcast
12:15 PM 30.2 °F 20.2 °F 19.4 °F 64% 29.98 in 10.0 mi WNW 12.7 mph 23.0 mph N/A   Overcast
12:53 PM 30.9 °F 21.2 °F 19.9 °F 64% 30.01 in 10.0 mi WNW 12.7 mph 23.0 mph N/A   Overcast
1:10 PM 30.2 °F 20.8 °F 19.4 °F 64% 29.98 in 10.0 mi WNW 11.5 mph 24.2 mph N/A   Overcast
1:53 PM 30.9 °F 22.8 °F 19.9 °F 64% 30.01 in 10.0 mi WNW 9.2 mph 24.2 mph N/A   Overcast
2:53 PM 30.9 °F 19.4 °F 21.0 °F 67% 30.03 in 10.0 mi West 17.3 mph 20.7 mph N/A   Overcast
3:53 PM 30.0 °F 20.5 °F 21.0 °F 69% 30.04 in 10.0 mi West 11.5 mph - N/A   Overcast
4:53 PM 30.0 °F 21.7 °F 21.9 °F 72% 30.04 in 10.0 mi West 9.2 mph - N/A   Overcast
5:53 PM 30.0 °F 21.1 °F 21.0 °F 69% 30.05 in 10.0 mi West 10.4 mph 18.4 mph N/A   Overcast
6:53 PM 30.0 °F 24.1 °F 21.9 °F 72% 30.05 in 10.0 mi WSW 5.8 mph - N/A   Overcast
7:53 PM 30.0 °F 24.1 °F 21.9 °F 72% 30.05 in 10.0 mi SSW 5.8 mph - N/A   Overcast
8:53 PM 30.0 °F 21.7 °F 21.9 °F 72% 30.05 in 10.0 mi WSW 9.2 mph - N/A   Overcast
9:53 PM 30.0 °F 21.7 °F 23.0 °F 75% 30.06 in 10.0 mi WSW 9.2 mph - N/A   Overcast
10:53 PM 30.0 °F 21.1 °F 23.0 °F 75% 30.05 in 10.0 mi WSW 10.4 mph - N/A   Overcast
11:42 PM 28.4 °F 18.5 °F 21.2 °F 74% 30.01 in 10.0 mi SW 11.5 mph - N/A   Overcast
11:53 PM 28.9 °F 19.8 °F 21.9 °F 75% 30.04 in 10.0 mi SW 10.4 mph - N/A   Overcast